CGXMF CYXU-CYXU

Flight info

Callsign CGXMF
Flight time 0h 12m
Altitude
Route CIRCUITS
Aircraft C172

Departure

Time 2026-04-25 00:16
Airport London International Airport (CYXU)

Arrival

Time 2026-04-25 00:28
Airport London International Airport (CYXU)
Time Latitude Longitude Altitude Speed Heading
2026-04-25 00:07 43.03566 -81.16272 905 ft 0 kts 73°
2026-04-25 00:08 43.03586 -81.16260 905 ft 7 kts
2026-04-25 00:09 43.03632 -81.16257 906 ft 6 kts 341°
2026-04-25 00:09 43.03646 -81.16262 906 ft 0 kts 351°
2026-04-25 00:09 43.03668 -81.16272 905 ft 4 kts 347°
2026-04-25 00:09 43.03681 -81.16276 905 ft 1 kts 351°
2026-04-25 00:10 43.03683 -81.16276 905 ft 3 kts 347°
2026-04-25 00:10 43.03706 -81.16283 905 ft 3 kts 348°
2026-04-25 00:10 43.03712 -81.16284 905 ft 0 kts 348°
2026-04-25 00:11 43.03722 -81.16287 905 ft 4 kts 349°
2026-04-25 00:11 43.03727 -81.16288 905 ft 0 kts 349°
2026-04-25 00:12 43.03747 -81.16295 905 ft 6 kts 347°
2026-04-25 00:12 43.03777 -81.16300 905 ft 4 kts
2026-04-25 00:12 43.03822 -81.16261 905 ft 0 kts 78°
2026-04-25 00:13 43.03826 -81.16231 905 ft 19 kts 79°
2026-04-25 00:14 43.03886 -81.15805 902 ft 69 kts 79°
2026-04-25 00:14 43.04012 -81.15045 957 ft 92 kts 77°
2026-04-25 00:14 43.04117 -81.14095 1019 ft 106 kts 88°
2026-04-25 00:14 43.03782 -81.13203 1078 ft 115 kts 145°
2026-04-25 00:15 43.03049 -81.12794 1204 ft 115 kts 164°
2026-04-25 00:15 43.02321 -81.13021 1301 ft 115 kts 232°
2026-04-25 00:15 43.02184 -81.14051 1422 ft 112 kts 271°
2026-04-25 00:15 43.02108 -81.15133 1479 ft 117 kts 264°
2026-04-25 00:16 43.01980 -81.16251 1527 ft 120 kts 261°
2026-04-25 00:16 43.01819 -81.17375 1551 ft 122 kts 258°
2026-04-25 00:16 43.01714 -81.18506 1485 ft 121 kts 284°
2026-04-25 00:16 43.02299 -81.19221 1411 ft 124 kts 354°
2026-04-25 00:17 43.02986 -81.18821 1426 ft 101 kts 40°
2026-04-25 00:17 43.03415 -81.18101 1324 ft 97 kts 62°
2026-04-25 00:17 43.03679 -81.17239 1131 ft 102 kts 77°
2026-04-25 00:17 43.03808 -81.16295 949 ft 88 kts 80°
2026-04-25 00:18 43.03901 -81.15628 902 ft 66 kts 79°
2026-04-25 00:18 43.04017 -81.14976 914 ft 72 kts 73°
2026-04-25 00:18 43.04118 -81.14222 993 ft 89 kts 79°
2026-04-25 00:18 43.04095 -81.13364 1159 ft 95 kts 118°
2026-04-25 00:19 43.03535 -81.12872 1267 ft 104 kts 174°
2026-04-25 00:19 43.02774 -81.12845 1305 ft 116 kts 182°
2026-04-25 00:19 43.02048 -81.13261 1350 ft 119 kts 236°
2026-04-25 00:19 43.01931 -81.14380 1376 ft 120 kts 272°
2026-04-25 00:20 43.01961 -81.15501 1498 ft 117 kts 271°
2026-04-25 00:20 43.01923 -81.16609 1575 ft 118 kts 265°
2026-04-25 00:20 43.01791 -81.17736 1604 ft 121 kts 261°
2026-04-25 00:20 43.01925 -81.18822 1631 ft 123 kts 316°
2026-04-25 00:21 43.02787 -81.18972 1467 ft 134 kts 18°
2026-04-25 00:21 43.03441 -81.18176 1312 ft 124 kts 63°
2026-04-25 00:21 43.03687 -81.17172 1074 ft 92 kts 78°
2026-04-25 00:21 43.03797 -81.16392 929 ft 75 kts 80°
2026-04-25 00:22 43.03891 -81.15742 902 ft 78 kts 80°
2026-04-25 00:22 43.04035 -81.14918 960 ft 98 kts 79°
2026-04-25 00:22 43.04119 -81.13956 1048 ft 103 kts 102°
2026-04-25 00:22 43.03669 -81.13319 1229 ft 97 kts 170°
2026-04-25 00:23 43.02971 -81.13311 1296 ft 104 kts 185°
2026-04-25 00:23 43.02465 -81.13896 1384 ft 104 kts 265°
2026-04-25 00:23 43.02480 -81.14896 1448 ft 107 kts 267°
2026-04-25 00:23 43.02386 -81.15917 1491 ft 110 kts 263°
2026-04-25 00:24 43.02266 -81.16974 1506 ft 114 kts 261°
2026-04-25 00:24 43.02107 -81.18015 1541 ft 115 kts 255°
2026-04-25 00:24 43.01897 -81.19039 1620 ft 112 kts 256°
2026-04-25 00:24 43.01771 -81.20107 1600 ft 117 kts 264°
2026-04-25 00:25 43.01692 -81.21234 1559 ft 120 kts 262°
2026-04-25 00:25 43.01542 -81.22360 1549 ft 120 kts 259°
2026-04-25 00:25 43.01611 -81.23441 1481 ft 123 kts 318°
2026-04-25 00:25 43.02352 -81.23271 1457 ft 124 kts 59°
2026-04-25 00:26 43.02862 -81.22355 1532 ft 117 kts 59°
2026-04-25 00:26 43.03121 -81.21280 1499 ft 123 kts 79°
2026-04-25 00:26 43.03281 -81.20110 1380 ft 123 kts 80°
2026-04-25 00:26 43.03411 -81.19209 1304 ft 85 kts 80°
2026-04-25 00:27 43.03517 -81.18433 1204 ft 79 kts 80°
2026-04-25 00:27 43.03617 -81.17699 1100 ft 80 kts 79°
2026-04-25 00:27 43.03725 -81.16959 1003 ft 75 kts 81°
2026-04-25 00:27 43.03820 -81.16274 905 ft 64 kts 80°
2026-04-25 00:28 43.03861 -81.15908 901 ft 19 kts 98°
2026-04-25 00:28 43.03786 -81.15790 899 ft 12 kts 135°
2026-04-25 00:28 43.03775 -81.15777 898 ft 0 kts 143°
2026-04-25 00:29 43.03774 -81.15776 898 ft 3 kts 139°
2026-04-25 00:29 43.03739 -81.15740 898 ft 8 kts 164°
2026-04-25 00:29 43.03685 -81.15865 901 ft 22 kts 260°
2026-04-25 00:29 43.03660 -81.16043 902 ft 17 kts 261°